#timestamp,LO_Frequency,Hit,StdDev 
1514743215.0,286046998.0,N
1514743215.9,286046998.0,N
1514743235.8,286046996.6,N
1514743255.6,286047000.8,N
1514743275.4,286046998.2,N
1514743295.3,286047000.7,N
1514743315.1,286046998.3,N
1514743335.8,286046999.1,N
1514743355.7,286046998.8,N
1514743375.5,286046999.9,N
1514743395.4,286047000.9,N
1514743415.2,286046999.4,N
1514743435.0,286046995.1,Y
1514743435.9,286046995.1,P
1514743455.8,286046997.8,N
1514743475.6,286046995.0,P
1514743495.5,286046995.0,Y
1514743515.3,286047002.0,P
1514743535.1,286047003.7,N
1514743555.9,286047003.6,N
1514743575.7,286047005.9,N
1514743595.6,286047001.9,N
1514743615.4,286047002.8,N
1514743635.2,286047001.9,N
1514743655.1,286047002.2,N
1514743656.0,286047002.2,N
1514743675.8,286047002.8,N
1514743695.6,286047000.0,N
1514743715.5,286047000.2,N
1514743735.3,286047000.9,N
1514743755.2,286047001.9,N
1514743775.9,286047002.9,N
1514743795.7,286047004.2,N
1514743815.6,286047002.4,N
1514743835.4,286047002.4,N
1514743855.2,286047002.6,N
1514743875.1,286047000.6,N
1514743876.0,286047000.6,N
1514743895.8,286047002.1,N
1514743915.7,286047001.8,N
1514743935.5,286047001.5,N
1514743955.3,286047000.4,N
1514743975.2,286047000.2,N
1514743995.0,286047001.7,N
1514743995.9,286047001.7,N
1514744015.8,286047002.2,N
1514744035.6,286047001.4,N
1514744055.4,286047001.4,N
1514744075.3,286047002.2,N
1514744095.1,286047004.1,Y
1514744115.9,286046999.8,P
1514744135.7,286047002.7,N
1514744155.5,286046999.7,N
1514744175.4,286047001.1,N
1514744195.2,286047000.2,N
1514744215.0,286047001.3,N
1514744216.0,286047001.3,N
1514744235.8,286047001.5,N
1514744255.6,286047001.6,N
1514744275.5,286047004.3,Y
1514744295.3,286047001.1,P
1514744315.1,286046999.2,P
1514744335.9,286046998.4,N
1514744355.7,286046999.0,N
1514744375.6,286047001.1,N
1514744395.4,286047001.0,N
1514744415.2,286047000.9,N
1514744435.1,286047000.1,N
1514744436.0,286047000.1,N
1514744455.8,286046996.5,Y
1514744475.7,286046996.5,P
1514744495.5,286047000.6,N
1514744515.3,286047002.3,N
1514744535.2,286047002.3,N
1514744555.9,286046999.8,N
1514744575.7,286047001.0,N
1514744595.6,286047000.9,N
1514744615.4,286046998.2,N
1514744635.3,286046998.2,N
1514744655.1,286047000.4,N
1514744656.0,286047000.4,N
1514744675.8,286046999.9,N
1514744695.7,286047000.3,N
1514744715.5,286046998.2,N
1514744735.3,286047001.0,N
1514744755.2,286046999.4,N
1514744775.0,286047001.0,N
1514744775.9,286047001.0,N
1514744795.8,286046999.6,N
1514744815.6,286046999.4,N
1514744835.4,286047000.6,N
1514744855.3,286047002.4,N
1514744875.1,286047001.5,N
1514744895.9,286047001.1,N
1514744915.7,286046999.3,N
1514744935.5,286047001.1,N
1514744955.4,286046998.5,N
1514744975.2,286047000.4,N
1514744995.0,286046999.0,N
1514744995.9,286046999.0,N
1514745015.8,286046997.7,N
1514745035.6,286046999.5,N
1514745055.5,286046995.3,Y
1514745075.3,286046995.9,P
1514745095.2,286046995.6,N
1514745115.9,286046995.7,N
1514745135.7,286046996.9,N
1514745155.6,286046997.7,N
1514745175.4,286046995.7,N
1514745195.2,286046996.0,N
1514745215.1,286046997.9,N
1514745216.0,286046997.9,N
1514745235.8,286046995.1,Y
1514745255.7,286047000.1,P
1514745275.5,286047002.5,N
1514745295.3,286047000.9,N
1514745315.2,286046998.2,N
1514745335.0,286046999.4,N
1514745335.9,286046999.4,N
1514745355.8,286047001.1,N
1514745375.6,286046998.4,N
1514745395.4,286046999.5,N
1514745415.3,286046998.6,N
1514745435.1,286047000.0,N
1514745455.8,286047000.0,N
1514745475.7,286047000.4,N
1514745495.5,286046999.8,N
1514745515.4,286047001.6,N
1514745535.2,286047001.7,N
1514745555.0,286046999.7,N
1514745555.9,286046999.7,N
1514745575.8,286046998.5,N
1514745595.6,286046996.5,N
1514745615.5,286046999.0,N
1514745635.3,286046998.6,N
1514745655.1,286047000.0,N
1514745675.9,286046999.9,N
1514745695.7,286047002.4,N
1514745715.5,286047000.3,N
1514745735.4,286046999.3,N
1514745755.2,286047000.6,N
1514745775.1,286047002.7,N
1514745776.0,286047002.7,N
1514745795.8,286047003.4,N
1514745815.6,286047003.2,N
1514745835.5,286047003.9,N
1514745855.3,286047005.5,Y
1514745875.2,286047001.8,P
1514745895.9,286047001.6,N
1514745915.7,286047000.8,N
1514745935.6,286046998.6,N
1514745955.4,286046996.9,N
1514745975.2,286046998.0,N
1514745995.1,286046996.8,N
1514745996.0,286046996.8,N
1514746015.8,286046998.7,N
1514746035.7,286047000.0,N
1514746055.5,286046998.1,N
1514746075.3,286046998.4,N
1514746095.2,286046999.6,N
1514746115.0,286046998.7,N
1514746115.9,286046998.7,N
1514746135.8,286046999.5,N
1514746155.6,286046996.6,N
1514746175.4,286046998.6,N
1514746195.3,286047000.7,N
1514746215.1,286047000.8,N
1514746235.9,286046999.6,N
1514746255.7,286046998.5,N
1514746275.5,286046998.5,N
1514746295.4,286046998.6,N
1514746315.2,286047000.8,N
1514746335.0,286046999.5,N
1514746336.0,286046999.5,N
1514746355.8,286046997.6,N
1514746375.6,286046995.3,Y
1514746395.5,286046999.5,P
1514746415.3,286046998.3,P
1514746435.1,286046998.1,P
1514746455.9,286046999.9,N
1514746475.7,286047000.8,N
1514746495.6,286046998.6,N
1514746515.4,286046999.4,N
1514746535.2,286046998.4,N
1514746555.1,286047001.1,N
1514746556.0,286047001.1,N
1514746575.8,286047002.2,N
1514746595.7,286047002.3,N
1514746615.5,286046998.4,N
1514746635.3,286046998.7,N
1514746655.2,286046998.7,N
1514746675.0,286047000.7,N
1514746675.9,286047000.7,N
1514746695.7,286046999.2,N
1514746715.6,286046998.3,N
1514746735.4,286047001.0,N
1514746755.3,286047001.2,N
1514746775.1,286047000.5,N
1514746776.0,286047000.5,N
1514746795.8,286047000.8,N
